Location: Unspecified
(0.0000°N, 0.0000°E)
Time: 21:59:06

N. Korean satellite - Pass Details

Date: 09 March 2018
Orbit: 460 x 512 km, 97.2° (Epoch: 17 March)

Event Time Altitude Azimuth Distance (km) Brightness Sun altitude
Rises 18:45:32 0° 189° (S) 2,487 10.3 -8.7°
Reaches altitude 10° 18:47:48 10° 203° (SSW) 1,614 9.6 -9.3°
Maximum altitude 18:50:41 25° 259° (W) 985 9.2 -10.0°
Drops below altitude 10° 18:53:35 10° 316° (NW) 1,624 9.8 -10.7°
Sets 18:55:53 0° 330° (NNW) 2,506 10.6 -11.3°
